Wind_Speed
53 53 52 51 51 51 51 50 49 48 48 47 47 47 49 50 51 50 49 48 48 48 47 46 47 48 51 53 54 54 53 52 51 51 50 50 49 49 48 47 47 46 45 45 44 44 44 44 44 44 45 45 46 47 47 47 47 47 48 48 49 50 51 52 52 52 52 52 52 52 53 53 53 53 52 50 49 47 46 46 46 46 46 47 48 49
52 52 51 50 50 50 50 49 48 47 47 47 46 47 49 51 53 52 51 50 49 49 49 49 50 52 54 55 55 55 53 52 51 50 49 48 47 46 46 45 44 43 42 41 40 40 39 39 39 38 38 39 40 41 42 43 44 44 45 46 47 48 49 49 50 51 51 51 51 51 51 52 53 53 53 52 50 48 46 45 45 45 45 45 45 46
51 51 51 50 49 49 49 50 50 49 49 49 49 50 52 53 54 53 52 51 51 51 51 52 54 55 56 56 55 54 52 50 49 47 46 44 43 42 41 41 40 39 38 37 36 35 35 34 34 34 34 35 36 37 38 39 41 42 43 44 45 46 47 48 48 49 49 50 50 50 50 51 51 52 53 53 51 48 46 45 44 44 44 44 43 43
49 49 49 49 49 48 48 49 51 52 53 53 54 54 54 54 54 54 53 52 52 52 53 54 55 56 56 55 53 51 49 47 45 43 41 40 39 37 36 35 34 34 33 32 32 31 31 31 31 31 32 32 33 35 36 37 38 39 40 41 42 44 45 46 47 48 48 48 48 49 49 50 50 51 52 52 50 48 46 45 44 43 43 42 42 42
47 46 47 48 48 48 47 48 50 52 55 57 57 56 55 54 53 53 52 51 52 53 54 54 54 54 53 52 50 48 46 44 42 40 38 36 34 32 31 30 29 28 28 28 28 28 28 29 30 30 31 31 32 33 34 35 36 36 37 38 39 41 42 43 44 45 46 46 47 47 48 48 49 49 50 50 49 47 46 45 44 43 42 42 41 41
47 46 47 47 47 46 45 46 48 52 56 58 58 56 54 53 52 51 51 51 51 52 52 52 52 51 50 49 47 46 44 42 40 38 36 33 31 29 28 27 26 25 24 24 24 25 25 26 27 27 27 28 29 30 31 32 33 34 34 35 36 37 38 39 41 42 44 45 46 47 47 47 47 48 48 48 47 47 46 45 44 43 42 41 40 40
49 48 48 48 47 45 43 44 48 53 56 58 57 55 54 53 52 51 50 50 50 51 51 51 50 49 48 47 46 45 43 42 39 37 34 32 30 28 27 27 26 24 23 23 22 22 22 23 23 23 24 25 26 28 29 30 32 32 33 34 35 36 36 37 39 41 43 45 46 46 47 47 47 46 46 46 46 46 46 46 45 43 42 41 40 39
50 50 49 49 48 47 46 46 49 52 54 54 54 54 54 54 53 53 52 51 51 51 51 51 50 49 48 47 46 45 44 42 39 36 33 31 30 29 28 28 27 26 25 24 23 23 22 22 21 21 22 23 25 26 28 30 31 32 33 34 35 35 36 37 38 41 43 44 45 46 46 46 46 46 45 45 45 46 46 46 45 44 42 41 40 39
50 51 51 50 49 49 49 49 50 50 50 50 51 52 53 55 55 55 54 54 53 52 51 50 50 50 50 48 47 46 44 41 38 35 33 32 31 31 30 30 29 29 28 27 26 26 24 24 23 22 22 23 24 26 28 29 30 32 33 35 35 36 37 38 39 41 43 44 45 45 46 46 46 45 45 45 45 45 45 45 45 44 43 41 40 39
50 50 51 50 49 48 49 50 50 50 49 49 50 51 52 53 54 56 57 57 56 54 52 50 50 51 52 50 48 46 44 40 37 34 32 32 33 33 33 32 32 32 31 31 30 29 28 27 25 25 24 23 24 25 27 28 29 31 33 35 36 37 38 39 41 42 42 43 44 44 45 45 45 45 45 44 44 44 45 45 45 45 44 42 41 40
49 49 49 49 49 49 49 50 50 50 49 49 49 50 50 52 53 56 59 60 58 55 52 51 52 53 53 51 49 46 43 40 36 33 32 33 33 34 34 34 34 34 33 33 32 31 29 28 27 26 24 22 21 23 25 26 28 30 32 34 36 37 39 40 41 42 42 43 43 44 44 45 45 45 45 44 44 44 44 45 45 45 44 43 42 41
48 47 47 47 48 48 49 49 49 49 48 48 48 49 51 54 56 58 60 60 58 54 52 53 54 54 53 51 49 46 42 39 36 34 33 34 34 34 35 35 35 35 34 34 33 31 29 28 28 27 24 22 20 21 23 24 26 28 31 33 35 37 39 40 42 42 43 43 43 43 44 44 45 45 44 44 44 44 44 44 44 44 44 43 43 42
46 45 45 46 47 48 49 50 51 50 49 48 49 52 55 57 58 59 59 57 54 52 52 54 55 54 52 50 48 45 41 38 35 34 34 35 35 35 35 36 36 36 35 35 33 31 30 29 28 27 25 23 22 22 22 24 25 27 29 31 33 36 38 40 42 43 43 43 43 43 44 44 43 43 43 43 44 43 43 43 43 43 43 43 43 42
44 44 44 46 48 50 52 53 53 53 52 52 52 54 56 57 57 56 55 52 51 51 53 55 56 55 52 49 46 43 39 37 35 34 35 36 36 36 37 40 41 40 38 37 35 33 31 29 28 27 26 24 23 23 23 24 24 25 27 29 31 34 37 39 41 42 43 43 43 43 43 43 42 41 40 41 42 43 42 42 42 42 43 43 44 43
44 44 46 48 51 54 55 56 56 55 54 53 53 53 54 54 53 51 49 48 50 52 54 55 56 54 52 49 45 42 39 36 35 35 36 37 37 39 42 45 45 44 41 39 36 33 31 30 29 27 26 25 24 24 24 24 24 24 25 27 30 32 35 37 39 41 42 43 43 43 43 43 42 41 40 41 42 42 41 41 42 43 44 44 44 43
46 48 50 53 55 57 57 56 56 56 54 52 51 50 50 50 49 48 47 49 52 54 56 56 56 55 52 48 44 41 39 37 36 36 37 38 40 42 44 47 47 46 42 38 35 32 30 29 28 27 26 25 24 24 24 24 24 25 25 27 29 31 33 35 37 39 41 42 43 43 42 42 42 41 40 41 42 43 42 42 43 45 46 45 44 42
50 52 54 56 57 58 57 56 55 53 51 49 48 48 47 47 46 46 47 50 53 56 57 57 57 56 53 49 44 41 39 37 37 37 39 41 43 44 44 46 47 46 41 36 33 30 29 28 27 26 25 25 24 24 24 25 25 25 25 26 27 28 29 31 33 36 39 41 42 42 42 41 40 39 41 42 43 44 44 44 45 46 46 45 43 42
54 55 56 57 58 58 57 55 52 49 47 46 46 46 46 45 44 45 47 51 54 57 58 57 56 54 52 50 46 42 39 39 39 40 42 44 44 43 43 44 45 43 39 35 31 29 29 28 27 26 25 24 24 24 24 24 25 25 26 26 25 25 25 26 28 32 36 39 41 41 41 41 40 40 42 44 45 45 45 45 46 47 47 46 44 42
55 56 56 57 56 55 53 50 47 45 44 44 45 45 44 43 43 44 48 52 55 58 59 57 55 51 49 48 46 42 40 40 41 42 43 44 43 41 40 41 42 40 37 34 31 29 29 28 27 26 25 25 25 25 25 25 26 27 27 27 26 24 23 23 25 28 31 35 38 40 41 41 41 42 43 44 46 46 46 46 47 48 49 48 46 44
52 52 52 51 50 48 46 44 42 41 41 42 42 42 42 42 43 46 49 53 56 58 58 56 52 49 47 46 44 42 40 40 40 41 42 42 41 39 38 39 40 39 37 33 31 30 30 29 28 27 26 26 26 26 26 26 27 27 28 28 27 26 26 26 26 27 29 33 36 39 40 40 41 42 43 44 46 47 48 48 49 50 50 49 48 46
47 47 46 44 42 40 39 38 38 38 39 39 39 40 41 43 45 48 52 55 57 57 55 52 49 47 45 45 44 41 39 38 38 38 39 40 39 37 38 40 41 41 38 34 32 31 31 30 29 27 26 26 26 26 27 27 27 27 27 28 28 29 29 29 29 29 30 32 34 37 40 40 41 42 43 44 46 48 49 50 51 51 51 50 49 48
43 42 41 39 36 35 35 36 37 38 38 38 39 40 42 45 48 51 54 56 56 55 52 49 47 45 44 43 42 40 37 36 35 35 37 38 39 40 40 42 43 42 40 36 34 33 33 32 30 29 28 28 28 28 28 27 27 27 27 29 30 31 32 32 32 31 31 32 34 37 40 41 42 42 43 45 47 49 50 51 52 52 52 52 50 49
39 38 37 36 35 35 37 39 40 41 40 41 42 44 45 48 50 53 55 55 54 51 49 47 45 43 42 41 40 38 36 34 33 33 34 38 41 43 42 43 44 43 41 38 37 36 35 34 32 31 30 29 28 28 28 28 29 29 29 30 31 33 33 34 33 33 32 33 35 37 40 42 43 43 44 45 47 49 51 52 53 53 53 52 51 50
36 35 35 35 37 39 42 43 43 42 42 43 44 45 47 49 51 52 52 51 49 48 46 45 44 43 41 40 39 37 35 33 32 32 35 40 43 44 43 44 45 45 42 40 39 38 37 35 33 32 30 29 28 27 28 28 29 30 30 31 32 33 34 34 34 33 33 34 35 37 40 42 44 45 45 46 48 49 51 52 53 53 53 52 51 50
34 33 34 37 40 43 44 44 43 42 42 43 44 46 47 48 48 48 47 46 45 44 44 43 43 42 40 39 38 37 35 32 32 33 38 42 45 45 43 44 45 46 44 41 39 38 37 35 33 31 29 27 26 25 26 26 27 28 30 31 32 32 33 33 33 33 33 34 35 38 40 43 45 46 47 47 48 49 50 51 52 52 52 52 51 49
34 34 34 36 40 42 43 42 41 40 40 41 43 44 45 45 45 44 44 43 42 42 42 42 41 41 40 38 37 36 34 33 34 37 41 44 45 45 44 44 45 46 45 43 41 40 38 36 33 30 28 25 24 23 23 24 25 27 28 30 31 31 31 32 32 33 33 34 35 38 40 43 46 47 48 48 49 49 50 50 51 51 51 51 50 49
35 34 34 37 39 41 40 39 39 38 39 39 39 40 41 41 42 42 41 41 41 40 40 40 40 40 39 38 37 36 36 37 38 40 42 44 45 46 45 44 44 45 45 44 43 41 40 37 34 30 27 24 22 21 21 21 22 24 27 28 29 29 29 30 31 32 33 34 35 37 40 43 45 47 48 49 49 49 50 50 50 50 50 50 49 48
35 35 36 38 39 39 38 38 38 37 37 37 37 37 37 38 39 40 40 40 39 39 39 38 38 38 37 37 37 38 39 40 41 41 42 43 45 46 45 44 44 44 45 45 44 43 41 38 35 31 27 23 21 19 18 19 20 22 24 26 27 27 28 29 30 31 32 33 35 37 39 41 44 46 47 48 49 49 50 50 50 50 50 49 48 47
36 36 37 37 37 37 37 37 36 36 35 35 35 35 35 36 37 38 38 38 38 37 37 37 36 36 36 37 39 41 41 41 40 40 41 43 44 44 43 43 43 44 45 45 45 43 41 38 36 32 28 24 20 18 17 17 17 19 22 24 25 25 26 27 29 30 31 33 34 36 38 40 42 44 45 47 48 49 49 50 50 50 49 48 47 47
36 36 36 35 35 35 35 35 35 35 34 34 34 34 34 35 35 36 37 36 36 36 36 36 35 35 36 39 41 43 43 41 40 39 40 41 42 43 42 43 43 44 44 45 45 44 41 38 35 33 29 25 20 17 15 15 15 17 19 21 23 24 25 26 27 29 30 32 34 36 37 39 41 42 44 45 46 47 48 49 49 49 48 47 46 46
36 35 35 34 34 34 35 35 35 34 34 34 34 33 33 34 34 35 35 35 35 35 35 35 36 36 37 39 41 43 43 42 40 38 38 39 41 41 42 42 43 43 43 43 44 43 42 39 35 32 29 25 21 17 14 13 14 15 18 20 21 22 24 25 26 27 29 30 32 34 36 38 39 41 42 43 44 45 46 47 47 47 47 46 45 44
35 35 35 35 35 35 35 35 35 35 34 34 34 34 34 34 34 35 35 35 35 35 35 36 36 37 38 38 40 42 43 42 40 38 38 38 39 41 41 42 42 43 42 41 41 41 41 40 36 32 28 25 20 16 13 12 12 13 16 18 20 21 23 24 25 26 28 29 31 33 35 36 38 39 40 41 42 43 44 44 45 45 45 44 44 43
35 35 35 35 35 35 35 35 35 35 35 35 35 35 35 35 35 35 35 35 35 36 36 36 37 38 38 39 40 41 42 41 40 38 37 37 38 39 40 41 42 42 41 39 38 38 38 38 36 32 28 24 19 16 12 10 10 11 14 17 18 20 22 23 25 26 27 29 30 31 33 34 35 36 38 39 40 41 41 42 42 43 43 43 42 41
35 35 35 35 35 35 35 35 35 35 36 36 36 36 36 36 36 36 36 36 36 36 36 36 36 37 38 39 40 41 41 40 38 36 35 35 36 37 39 40 40 39 38 37 36 36 36 35 34 32 28 23 18 14 12 9 8 10 13 15 18 19 21 23 25 26 27 28 29 30 30 31 32 34 35 36 37 37 38 39 39 40 40 41 40 40
35 35 35 35 36 36 36 36 36 36 36 37 37 37 36 36 36 36 36 35 35 35 35 35 35 36 36 37 39 40 40 39 37 35 34 33 34 35 36 37 37 36 36 35 35 34 34 33 32 30 27 22 17 12 9 7 6 8 11 14 17 19 20 22 24 25 26 26 27 27 27 28 29 30 31 32 33 34 34 35 36 37 38 38 38 38
34 35 35 36 36 37 37 37 37 37 37 37 37 37 36 36 36 35 35 35 34 34 34 34 34 34 34 35 36 37 38 37 35 33 31 30 30 31 34 35 34 34 33 33 33 33 32 31 29 27 25 22 16 11 6 4 5 8 11 13 15 17 19 20 22 22 23 23 23 23 24 25 25 27 28 28 29 30 31 32 33 34 35 36 36 37
35 35 36 36 37 37 38 38 38 38 38 37 37 36 36 35 34 34 33 33 32 32 32 32 32 32 32 32 33 34 34 34 32 30 28 26 26 28 31 32 32 31 30 30 31 30 30 30 28 25 22 19 15 10 5 3 5 7 10 12 13 15 16 18 19 19 20 19 19 20 20 21 22 23 24 25 26 27 27 28 30 31 32 33 34 34
35 36 36 37 37 37 38 38 38 38 37 37 36 35 35 34 33 32 31 31 30 30 29 29 29 29 29 29 30 30 30 29 28 26 25 24 25 26 28 29 29 28 28 28 28 28 28 28 26 24 20 16 13 9 5 3 5 7 9 11 12 13 14 15 16 16 16 16 16 17 17 18 19 20 21 22 23 24 25 26 27 28 29 30 31 32
36 37 37 37 37 37 37 38 37 37 36 36 35 34 33 32 31 30 29 29 28 28 27 27 27 28 27 27 27 26 26 25 24 23 23 23 23 25 26 26 26 26 26 26 26 26 26 25 24 22 19 15 11 6 3 3 5 8 9 11 11 12 13 14 14 14 13 13 13 14 15 16 17 18 19 20 21 22 23 24 25 26 27 28 29 29
36 37 37 37 37 37 37 37 36 36 36 35 34 33 32 31 30 29 28 27 26 26 26 26 26 26 25 24 23 22 22 22 22 22 22 22 22 22 23 24 24 24 24 24 24 24 23 23 22 20 17 14 10 5 2 3 5 8 9 10 10 11 12 12 12 11 11 11 11 11 12 14 15 16 17 18 19 21 22 23 24 25 26 27 27 28
36 36 36 36 36 36 35 35 35 35 34 34 33 32 30 30 29 28 27 27 26 25 25 24 24 24 23 21 20 20 20 20 20 20 20 20 20 20 21 21 22 22 23 23 22 22 21 20 19 17 15 12 9 5 3 4 6 8 10 11 11 12 12 11 11 10 11 11 10 10 11 12 13 14 15 17 18 20 21 22 23 24 25 25 26 27
36 36 36 36 35 35 35 35 34 33 33 32 31 30 29 28 27 27 27 26 25 24 24 23 23 22 20 19 18 18 19 19 19 18 18 18 18 18 19 19 20 21 21 21 21 20 19 18 17 15 13 11 8 5 3 4 7 9 10 11 12 12 11 11 11 11 11 11 10 10 9 10 11 13 14 16 17 19 20 20 21 22 22 23 24 25
35 35 35 35 35 35 34 34 33 32 31 30 29 27 26 25 25 25 25 25 24 23 22 21 21 20 20 20 19 18 17 17 17 17 17 17 17 17 18 19 19 20 20 20 20 18 17 16 15 14 12 10 8 6 4 5 7 10 11 11 12 12 12 12 12 12 12 11 11 10 9 9 11 12 14 16 17 18 19 19 20 21 21 21 22 22
35 35 35 35 35 34 33 33 32 30 29 28 27 25 24 23 23 23 23 22 22 21 21 20 20 21 21 22 21 19 18 17 16 16 16 17 17 18 18 19 19 19 19 18 18 17 16 14 13 12 11 9 7 6 5 6 8 11 12 12 12 13 13 13 12 12 12 12 11 10 9 9 10 11 14 16 17 18 19 20 20 21 21 21 21 21
34 34 34 34 33 33 32 31 29 28 27 26 24 23 22 22 21 21 21 21 21 20 21 21 22 23 24 23 22 21 19 18 17 17 17 17 17 17 18 18 18 18 17 17 16 15 14 13 12 11 10 9 7 6 5 6 9 11 13 13 13 13 14 13 13 12 12 11 10 9 7 7 8 9 10 12 14 16 17 18 18 19 20 20 20 20
33 33 33 32 32 31 30 28 27 26 25 24 23 22 21 21 20 20 20 20 21 22 22 22 23 24 24 23 23 22 21 20 19 19 18 17 17 17 16 16 16 16 15 15 14 13 12 12 11 10 9 7 6 5 6 7 9 12 13 14 14 14 14 14 13 12 12 10 8 7 6 6 5 6 6 8 9 11 12 13 13 14 15 16 16 17
32 32 32 31 30 29 27 26 25 25 24 23 22 21 21 20 20 20 20 21 22 23 23 23 23 23 23 23 22 22 22 21 20 19 18 17 16 15 15 14 14 13 13 13 13 12 11 10 9 8 7 6 5 5 6 8 10 11 13 14 14 15 15 14 13 12 10 8 6 6 6 5 4 4 4 5 6 6 8 8 8 8 9 9 10 10
31 30 30 29 28 27 26 25 24 24 23 22 21 21 20 20 20 21 21 22 23 23 23 23 23 22 22 21 21 21 21 21 20 19 18 16 15 14 13 12 11 11 11 10 10 10 10 9 7 7 6 6 5 5 7 9 11 12 13 14 14 14 15 14 13 11 9 7 6 5 5 5 4 4 3 3 4 5 6 7 6 6 6 7 7 7
29 28 28 27 27 26 25 24 24 23 23 22 22 21 20 20 20 21 22 22 23 23 22 22 22 21 21 20 20 20 19 19 18 17 16 15 13 12 11 10 9 9 9 9 8 8 8 7 6 5 5 5 5 6 8 10 11 12 13 14 14 14 15 14 13 10 8 6 4 4 3 4 4 3 3 4 6 7 9 10 10 10 10 11 12 13
27 27 26 26 26 25 25 24 24 23 23 23 22 22 21 21 21 21 22 22 22 21 21 21 21 20 20 20 20 19 19 18 17 16 15 14 12 11 9 8 7 7 7 7 6 6 5 5 5 4 5 5 6 7 9 10 11 12 13 13 14 15 15 15 13 11 9 7 6 6 6 6 6 7 7 8 10 11 13 14 15 15 15 16 17 19
26 26 25 25 25 24 24 24 24 24 23 23 23 23 22 22 22 22 22 21 21 20 20 19 19 19 19 19 19 18 18 17 16 16 15 13 12 11 10 8 7 6 6 5 5 4 3 3 3 3 4 6 7 9 10 11 11 12 13 14 15 16 17 16 14 11 10 10 10 11 11 11 11 11 11 12 13 15 16 17 19 20 20 21 23 24
Wind_Direction
302 303 303 303 304 305 305 306 307 307 307 307 306 306 305 305 305 304 304 303 302 302 301 300 299 298 298 300 302 304 304 305 305 304 302 300 298 295 293 291 289 286 284 282 281 279 277 276 275 274 273 272 271 271 270 269 267 266 264 262 260 258 256 255 254 254 253 253 252 252 252 253 253 254 254 254 254 254 256 260 263 265 265 263 261 260
304 304 304 305 305 306 307 308 308 308 308 307 305 304 304 305 305 305 304 303 303 302 301 300 299 298 298 300 302 303 304 305 305 304 302 300 297 295 293 291 289 287 284 282 280 278 276 274 273 271 270 268 268 267 267 266 265 264 262 261 260 258 256 255 254 253 252 252 251 251 251 251 251 252 253 253 253 252 253 256 260 263 265 264 263 261
305 305 305 306 307 308 309 310 310 309 308 306 305 304 305 305 305 304 304 303 303 302 301 300 300 299 300 301 302 304 304 305 304 303 301 299 297 295 293 290 288 285 282 279 276 274 273 271 269 267 266 264 264 263 262 262 261 260 260 259 258 257 256 255 253 253 252 251 251 250 249 249 250 250 251 252 252 251 251 252 256 260 263 265 265 263
306 306 306 307 308 309 310 312 311 309 307 306 306 306 306 305 305 304 304 303 302 301 301 300 300 301 301 303 304 304 305 305 305 303 302 300 297 295 292 290 287 283 279 276 273 272 271 270 268 266 264 262 260 259 258 257 257 257 257 257 257 256 255 254 254 253 252 252 251 250 249 249 249 249 250 251 251 251 250 250 252 256 260 263 265 265
305 304 304 304 305 307 310 311 309 306 304 304 305 306 306 305 305 305 305 304 303 302 302 301 302 302 303 304 305 306 306 307 306 305 303 300 298 295 293 291 288 284 280 276 274 272 270 269 268 266 263 260 258 256 254 254 254 254 254 254 254 254 254 254 253 252 251 251 250 249 248 248 248 248 249 250 250 250 249 248 248 251 255 259 262 264
303 302 301 301 302 304 308 307 304 300 299 301 305 307 307 307 307 307 307 306 305 304 303 303 303 304 305 306 307 308 309 309 308 306 303 300 297 295 294 292 290 287 283 280 278 275 273 270 268 266 263 259 257 254 253 252 251 251 250 250 250 250 250 250 249 249 248 248 247 247 247 247 247 247 248 248 248 248 248 247 246 248 250 255 259 262
301 301 301 300 301 302 302 299 296 294 296 301 306 308 309 309 308 308 308 308 307 306 305 305 306 306 307 309 310 310 310 309 307 305 301 298 295 293 293 292 291 288 285 283 281 280 278 276 274 271 268 264 260 257 254 252 250 248 247 246 246 245 245 245 245 245 245 244 244 245 245 245 245 245 245 246 246 246 246 245 245 245 247 250 254 258
302 302 303 302 302 301 299 295 294 296 300 306 309 310 310 310 310 310 310 310 309 309 308 308 308 308 309 310 311 311 310 309 306 302 299 296 293 292 291 291 289 287 285 283 282 280 278 275 273 272 271 269 266 261 257 254 251 249 247 245 243 242 241 241 243 244 243 242 242 242 243 243 243 243 243 243 243 243 244 244 244 244 244 247 250 254
302 304 304 304 303 302 301 300 301 304 308 311 312 310 309 309 310 310 311 311 311 310 309 309 309 309 309 310 311 311 309 307 303 300 297 295 293 291 290 289 288 287 286 287 287 285 282 276 272 269 269 269 267 264 260 256 254 251 248 246 243 242 241 241 241 242 241 241 241 241 241 241 241 241 241 241 241 241 241 242 242 242 243 244 246 250
304 304 305 306 306 306 306 307 308 310 313 314 312 309 307 306 307 308 309 310 311 310 309 308 307 307 309 310 310 310 308 305 301 297 294 293 293 292 290 288 288 289 290 291 292 292 289 284 280 276 273 269 265 262 260 258 256 253 250 248 245 243 242 240 239 239 239 240 240 240 240 240 240 240 240 240 239 239 239 239 240 241 241 242 244 246
306 307 309 309 309 309 309 308 309 311 312 311 309 305 303 302 303 304 306 308 309 309 309 308 307 307 308 309 310 309 307 303 299 295 293 292 292 291 289 288 288 289 290 292 293 294 293 291 288 286 282 276 268 263 261 259 257 255 252 250 248 245 243 240 239 238 239 239 239 239 239 239 239 238 239 238 238 237 237 238 238 239 240 241 242 244
310 311 311 310 309 308 306 305 305 306 306 305 303 300 299 299 300 302 304 306 307 308 308 307 307 307 308 309 309 308 306 302 298 295 294 294 293 293 291 289 288 288 290 291 292 293 294 293 292 291 288 284 276 268 264 262 260 257 255 252 250 247 244 242 240 239 238 239 239 239 239 239 238 238 238 237 237 236 236 236 237 239 239 240 241 242
313 312 309 306 303 301 300 299 299 299 299 298 296 295 295 297 300 302 303 305 307 307 306 306 306 307 307 308 308 308 305 300 296 294 295 297 299 298 296 295 294 293 292 292 292 292 292 292 291 290 289 285 280 273 268 265 262 259 257 254 251 249 247 244 242 240 239 239 238 238 239 239 239 238 238 237 236 235 235 236 237 238 239 240 240 240
311 307 303 298 296 294 294 295 296 296 296 296 295 296 297 299 302 304 305 307 307 307 306 306 306 307 307 308 308 308 305 300 296 295 298 302 303 301 297 297 297 297 297 296 294 292 292 291 290 288 285 282 278 274 270 267 265 262 259 256 253 251 248 246 244 243 241 240 239 239 239 239 238 238 238 237 236 234 234 234 235 237 238 238 239 239
303 299 294 292 291 291 293 296 298 299 300 301 301 302 303 304 305 307 308 308 307 307 307 308 308 307 307 308 309 309 306 301 298 299 303 304 302 297 294 294 296 297 298 297 295 293 291 289 288 286 283 279 275 272 270 268 266 263 259 256 253 250 248 246 245 244 243 241 240 240 240 240 238 237 237 236 234 232 231 232 233 234 236 237 238 238
292 290 289 289 290 292 295 298 300 302 303 305 306 307 308 309 310 311 310 307 307 307 309 310 309 308 308 308 309 309 308 304 301 300 301 299 294 291 291 292 294 296 297 296 295 293 290 288 286 283 280 277 273 271 270 269 266 262 257 253 250 249 247 247 247 246 245 243 242 241 241 240 240 238 237 235 232 230 229 229 231 233 234 236 237 237
285 285 287 288 290 293 296 298 301 303 305 307 309 310 311 312 312 310 307 304 304 306 308 310 310 309 308 309 310 311 309 305 301 298 295 291 289 289 292 294 296 297 297 297 296 294 292 289 286 282 279 275 273 271 269 267 263 259 255 252 249 248 248 248 249 249 248 246 243 241 240 240 240 240 236 234 231 228 227 228 230 232 234 236 237 237
287 288 289 291 292 294 297 299 301 304 307 310 312 313 314 313 310 305 300 299 301 304 307 309 309 308 308 308 309 311 310 307 302 298 295 292 292 294 296 297 298 298 299 299 298 296 294 291 288 284 280 276 273 270 268 265 262 259 255 250 246 245 245 248 250 250 249 248 245 242 239 238 238 237 235 232 229 227 226 227 230 233 235 236 237 237
292 292 293 293 294 295 297 299 302 306 310 313 314 314 312 307 301 296 293 294 298 302 306 307 307 307 306 307 308 310 310 308 305 302 300 298 298 299 300 300 300 301 301 301 300 299 298 294 290 286 281 277 272 269 266 263 261 258 253 246 241 238 239 241 244 246 248 248 246 243 240 238 237 236 234 232 229 226 225 227 229 232 234 236 237 237
296 295 295 295 295 296 298 301 305 309 312 312 311 308 303 297 291 288 288 292 297 301 304 305 306 306 306 306 307 309 309 308 307 306 304 303 302 302 302 303 303 303 303 303 302 301 299 296 292 287 282 277 272 268 265 262 260 257 252 245 239 235 235 236 238 239 240 242 243 242 240 238 237 236 234 232 229 227 225 226 229 231 233 235 236 236
299 297 296 295 296 297 299 303 305 306 305 303 300 296 291 288 286 286 289 293 297 301 303 304 305 305 306 305 306 307 309 309 309 309 308 306 305 304 304 303 303 304 304 303 302 302 300 297 293 289 284 279 274 270 266 264 262 258 253 245 239 236 236 237 237 236 234 235 236 238 238 237 236 235 234 233 230 228 226 226 228 230 232 233 234 235
300 298 297 297 297 298 299 299 296 293 291 289 287 286 285 285 286 288 292 295 298 301 302 303 304 304 304 304 305 306 308 310 312 312 311 308 305 303 302 302 302 303 303 303 303 303 301 298 295 291 286 281 277 272 269 266 264 261 255 248 243 240 239 239 238 236 233 230 231 233 234 234 234 233 233 232 231 229 227 227 227 229 230 232 233 234
301 299 299 299 299 297 294 289 285 283 283 282 282 283 284 286 288 291 294 296 299 300 302 302 303 303 303 303 305 306 309 312 315 314 309 302 299 299 300 302 303 303 303 304 304 303 302 300 297 293 288 284 279 274 271 268 265 262 257 252 247 244 243 243 242 239 234 229 228 229 231 232 232 231 231 231 231 230 229 228 228 229 230 231 233 234
301 299 300 300 299 295 289 285 283 283 284 285 285 286 288 289 291 293 295 297 298 300 301 301 302 302 303 304 306 308 310 314 315 310 301 295 294 297 300 302 303 303 303 303 303 303 301 300 298 295 291 287 282 277 272 269 264 260 256 253 250 249 248 248 246 243 237 231 228 227 229 230 230 230 230 230 231 231 230 229 229 229 230 231 232 233
299 297 297 296 294 290 287 286 287 288 290 290 291 291 292 293 293 294 296 297 298 299 300 301 302 303 304 305 306 308 310 312 308 299 293 291 294 298 301 302 302 302 302 302 302 301 301 299 298 296 293 289 284 279 273 268 263 258 254 252 251 252 251 251 249 245 239 233 229 227 228 229 230 230 229 229 230 231 231 230 230 230 230 231 232 233
296 294 293 291 288 286 287 289 292 293 294 294 294 295 295 295 296 296 297 298 299 300 300 301 301 302 304 304 305 306 307 305 298 291 289 291 295 299 301 302 302 301 301 301 301 301 301 301 299 298 295 291 286 280 274 268 262 257 253 251 252 253 253 252 250 245 240 235 230 228 229 230 230 230 229 229 230 231 231 231 231 231 231 232 232 233
296 292 290 287 286 288 292 295 298 298 298 298 297 297 297 297 297 298 298 299 300 300 300 300 300 301 302 302 302 302 300 295 290 289 291 293 296 298 300 301 301 301 301 301 302 303 303 303 302 301 299 295 289 282 274 268 262 255 251 251 252 254 255 253 249 245 240 235 231 229 230 231 232 232 231 230 231 231 232 232 232 232 232 232 232 232
300 295 292 291 292 296 299 302 302 302 301 300 300 299 299 298 298 298 298 299 299 299 298 298 299 299 300 299 298 295 292 290 291 293 295 295 296 297 299 300 300 301 301 302 302 303 303 304 304 304 302 299 293 285 276 269 262 255 250 251 253 254 254 251 248 243 239 234 231 230 231 233 234 234 234 233 232 232 233 233 233 233 233 233 233 233
304 301 299 299 301 303 304 304 304 304 303 303 302 301 300 299 298 298 298 299 299 298 298 298 297 297 296 294 292 291 290 291 294 296 296 295 295 296 298 299 300 301 301 302 303 303 303 305 305 306 305 303 298 290 281 271 263 256 251 251 252 252 251 249 246 242 238 234 231 230 231 233 235 236 236 235 234 234 234 234 234 234 234 234 234 233
308 306 305 306 307 307 307 306 306 306 305 305 304 302 301 299 298 297 298 298 298 298 297 297 295 294 292 291 290 291 292 294 295 295 295 295 296 296 298 299 299 300 301 302 303 303 303 304 306 307 307 305 301 295 286 276 266 258 252 250 249 249 249 248 245 241 237 234 232 232 232 234 236 237 237 237 236 236 235 235 235 236 236 235 235 234
311 311 311 311 311 311 310 310 309 308 307 306 305 303 301 300 299 299 299 299 299 298 298 296 295 293 292 291 291 292 293 294 295 296 296 296 296 297 298 298 298 299 300 301 302 303 303 304 305 306 307 306 302 297 290 282 270 259 252 248 246 246 246 246 245 242 238 236 234 234 235 236 237 238 238 238 238 237 237 237 237 237 237 236 236 236
314 314 314 314 314 313 312 312 311 309 308 307 306 304 303 302 302 301 301 301 300 300 299 298 296 295 294 293 292 292 293 295 296 298 298 298 297 297 297 297 297 297 298 299 299 300 301 302 304 306 306 305 303 299 294 286 273 260 250 245 243 243 243 244 244 242 240 238 237 237 238 239 239 240 240 240 239 239 238 238 238 238 238 237 237 237
316 316 316 316 315 314 313 312 311 310 309 308 307 307 306 305 305 304 304 303 302 302 301 300 299 298 296 295 294 293 293 295 297 298 298 298 297 296 296 295 295 296 297 297 298 298 299 300 303 305 305 305 303 302 299 289 273 257 247 242 239 238 239 240 241 241 240 240 239 240 240 241 241 242 242 241 241 240 240 239 239 239 239 239 238 238
317 317 317 316 315 314 313 312 311 311 310 310 309 309 309 308 307 307 306 305 304 303 302 301 300 299 298 296 295 294 294 295 297 298 298 297 296 295 295 295 295 296 297 298 298 299 299 300 302 304 304 303 304 305 305 294 270 249 241 236 234 233 234 235 236 237 238 238 239 240 240 241 242 242 242 242 241 241 241 240 240 240 239 239 239 239
317 316 316 316 315 315 314 313 313 312 312 312 311 311 311 310 309 309 308 306 305 304 302 301 300 299 297 297 296 295 295 296 297 297 296 295 295 295 294 294 295 296 297 298 299 299 299 300 302 303 303 303 305 308 308 294 264 240 232 230 228 228 229 230 232 233 233 234 236 237 238 239 240 240 240 241 241 241 240 240 240 240 240 239 239 239
316 316 317 317 316 316 315 315 315 314 314 314 313 313 313 312 311 310 309 307 305 304 302 301 299 298 297 296 295 295 295 297 297 297 296 296 296 295 295 294 294 296 297 298 298 299 299 300 301 302 303 305 308 310 308 281 245 230 226 225 225 225 226 227 228 229 229 230 232 233 234 235 236 237 237 238 238 238 238 238 238 238 238 238 238 239
317 317 318 318 318 318 317 317 317 317 316 316 316 315 315 314 313 312 310 308 306 304 302 301 299 297 296 295 295 295 296 297 297 297 297 298 297 296 294 293 294 295 296 296 297 298 298 299 300 302 304 307 311 313 306 250 219 218 219 219 220 221 223 224 225 225 226 227 228 229 230 231 232 233 234 234 234 234 234 234 235 235 236 236 237 237
319 319 320 320 320 320 319 319 319 319 319 319 318 318 317 317 315 314 312 310 308 306 304 302 300 298 297 296 295 295 295 296 297 299 300 300 298 295 293 293 293 294 294 295 296 297 298 299 300 302 305 308 311 312 302 232 198 200 207 211 213 215 219 220 221 221 221 222 223 225 226 227 228 229 230 230 230 229 229 230 231 232 233 234 235 235
321 321 322 322 322 321 321 321 321 321 321 321 321 321 320 319 318 316 314 312 311 309 307 305 303 301 300 299 298 297 298 300 302 304 303 301 297 294 292 292 293 293 293 294 295 296 297 298 300 302 305 307 309 306 283 222 195 193 198 202 206 209 213 215 215 214 212 212 213 215 218 220 222 224 226 227 227 227 226 227 228 229 230 231 233 234
323 323 323 323 323 323 323 323 323 324 324 324 324 323 323 322 321 319 317 315 314 313 311 310 308 306 305 303 303 304 306 309 309 307 304 300 296 293 291 291 293 294 294 294 294 295 296 296 297 299 302 304 304 297 252 204 193 190 190 190 194 200 206 207 204 200 196 194 195 199 204 210 215 219 222 224 225 225 225 226 226 228 229 230 231 232
324 324 324 324 324 324 325 325 326 326 326 326 326 326 326 326 324 323 321 320 319 318 317 315 312 310 308 309 312 315 317 316 313 309 304 300 296 293 292 292 293 294 294 294 294 294 295 295 295 295 296 296 292 279 234 193 187 186 183 182 187 193 198 196 191 184 180 177 177 181 188 195 202 208 214 218 220 223 224 225 226 227 229 230 230 231
326 326 326 326 326 327 327 328 328 328 329 329 330 330 330 329 327 326 324 324 323 323 321 319 317 317 318 321 324 325 323 320 315 310 306 302 299 298 297 296 296 295 295 294 294 294 294 293 293 292 290 286 278 263 226 188 184 184 182 183 186 189 190 187 180 174 172 168 166 169 176 185 191 198 203 208 213 217 220 222 224 226 228 229 229 229
327 328 328 328 329 329 330 331 331 332 332 333 333 333 333 332 330 328 327 327 327 327 326 326 327 329 332 333 333 331 328 324 319 314 311 309 307 305 303 301 299 298 297 296 295 295 293 291 291 290 287 279 266 249 220 182 177 181 183 185 183 181 180 181 178 172 168 163 160 162 168 177 186 191 196 200 204 208 212 215 217 219 220 222 223 225
329 329 330 330 331 332 333 334 334 335 335 336 336 337 336 335 333 332 331 331 331 332 334 335 337 339 340 340 338 335 332 330 326 322 320 317 314 311 307 304 302 300 300 297 296 295 293 291 289 285 280 272 259 239 209 180 174 177 181 183 181 180 181 182 178 171 163 157 152 152 157 165 174 182 189 194 197 200 201 203 205 207 208 210 211 213
331 331 332 333 334 334 335 336 337 338 338 339 340 340 340 339 338 337 336 337 338 341 343 345 345 344 343 342 340 338 336 335 334 332 328 324 319 314 310 306 303 302 301 299 297 295 293 291 287 281 272 264 251 232 203 179 173 176 180 181 181 181 183 182 176 166 153 144 139 136 137 146 158 169 177 182 185 188 189 189 190 191 192 195 197 199
333 333 334 335 336 337 338 339 340 340 341 342 343 344 345 344 343 343 343 345 346 349 351 350 348 344 342 342 341 341 340 340 339 337 333 328 323 317 312 308 305 303 301 300 299 298 294 288 284 277 269 259 242 218 193 178 173 175 179 180 180 181 183 181 173 160 145 134 122 110 104 114 131 145 150 157 165 169 170 169 168 169 171 175 180 183
335 336 336 337 338 339 340 342 342 343 343 345 347 348 349 349 348 349 350 352 353 353 353 351 348 345 343 343 344 344 343 343 342 339 336 331 325 319 314 310 307 304 301 299 298 298 296 291 282 272 264 253 233 203 182 175 174 175 178 179 181 182 184 179 169 153 137 121 101 79 69 72 78 91 109 129 144 154 156 153 150 151 157 163 169 174
338 338 338 339 340 341 343 344 344 345 345 347 349 351 353 353 353 354 356 357 357 355 352 350 348 347 347 348 349 349 348 346 344 342 339 335 330 324 318 313 308 304 302 298 296 294 293 290 282 270 256 241 220 190 173 171 173 175 177 179 182 183 183 175 163 147 127 107 81 57 46 44 46 56 77 111 141 160 167 166 165 168 177 187 194 201
340 340 340 341 342 343 344 345 346 347 348 350 352 354 356 357 358 359 360 0 359 356 353 350 349 350 351 353 354 354 352 351 349 347 344 342 338 334 327 320 312 306 302 298 296 293 290 285 276 264 247 225 204 182 168 169 172 174 176 179 181 181 177 167 155 140 124 110 93 76 66 69 76 88 111 138 155 163 168 170 172 177 182 188 194 198
342 342 342 343 343 344 345 347 348 349 351 353 355 356 358 1 3 4 4 2 360 357 355 353 353 354 356 358 359 359 357 356 354 353 352 351 349 346 341 334 326 319 312 305 299 293 286 278 267 249 226 205 189 178 171 169 170 172 174 176 178 175 168 158 147 137 129 130 133 134 132 129 128 129 135 144 149 153 156 159 161 164 168 170 172 173
345 345 345 345 345 345 347 348 350 352 354 356 357 359 1 3 5 7 6 4 2 360 359 359 359 360 0 2 2 2 1 0 360 360 0 360 359 358 355 351 346 339 332 323 310 293 274 254 236 219 204 190 179 173 169 168 168 169 170 171 170 165 157 148 141 137 138 143 146 147 147 145 142 140 139 142 144 146 147 150 151 152 155 156 157 156
Height
2848 2846 2845 2843 2842 2839 2836 2836 2835 2833 2830 2829 2827 2826 2824 2823 2821 2820 2819 2818 2816 2815 2813 2812 2810 2809 2808 2806 2805 2804 2803 2802 2800 2799 2797 2795 2794 2792 2791 2790 2789 2788 2788 2787 2786 2786 2786 2786 2786 2787 2788 2788 2789 2790 2791 2792 2794 2795 2796 2797 2798 2800 2801 2802 2803 2805 2806 2808 2809 2811 2812 2814 2815 2817 2818 2820 2821 2823 2824 2825 2825 2826 2827 2828 2829 2830
2845 2843 2841 2840 2838 2836 2833 2832 2832 2830 2828 2825 2824 2823 2821 2819 2817 2816 2815 2814 2812 2811 2810 2808 2807 2805 2804 2802 2801 2800 2799 2798 2796 2795 2793 2791 2789 2788 2786 2785 2785 2784 2783 2783 2782 2782 2782 2782 2782 2782 2783 2783 2784 2785 2786 2787 2788 2789 2790 2792 2793 2794 2795 2797 2798 2800 2801 2803 2805 2806 2807 2809 2810 2812 2813 2815 2816 2818 2820 2821 2822 2822 2823 2825 2826 2827
2841 2839 2837 2836 2835 2833 2830 2828 2827 2827 2825 2823 2821 2820 2818 2816 2814 2812 2811 2810 2808 2807 2806 2805 2803 2801 2800 2798 2797 2796 2795 2794 2792 2790 2788 2787 2785 2784 2782 2781 2780 2780 2779 2779 2778 2778 2778 2778 2778 2778 2778 2779 2779 2780 2781 2782 2783 2784 2785 2786 2788 2789 2790 2792 2793 2795 2796 2798 2800 2801 2802 2804 2805 2807 2808 2810 2812 2814 2815 2817 2819 2820 2820 2821 2822 2823
2839 2836 2834 2832 2831 2830 2828 2826 2824 2822 2821 2820 2818 2817 2816 2814 2811 2809 2808 2806 2805 2804 2802 2801 2799 2798 2795 2794 2793 2792 2791 2790 2788 2786 2784 2783 2781 2780 2779 2778 2777 2776 2775 2775 2774 2774 2774 2774 2774 2774 2774 2775 2775 2775 2776 2776 2777 2778 2780 2781 2782 2784 2785 2787 2788 2790 2791 2793 2795 2796 2798 2799 2801 2802 2804 2805 2807 2809 2811 2813 2815 2816 2817 2818 2819 2820
2836 2834 2832 2830 2828 2826 2825 2824 2822 2820 2818 2816 2815 2814 2812 2810 2808 2806 2804 2803 2802 2800 2798 2797 2795 2794 2792 2790 2789 2788 2787 2785 2784 2782 2780 2779 2778 2777 2776 2775 2774 2773 2772 2771 2771 2770 2770 2770 2770 2770 2770 2770 2770 2770 2771 2771 2772 2774 2775 2776 2777 2779 2780 2782 2784 2785 2787 2788 2790 2791 2793 2795 2796 2798 2800 2801 2803 2805 2807 2809 2811 2813 2814 2815 2816 2817
2834 2832 2830 2828 2826 2824 2822 2822 2822 2820 2815 2813 2811 2810 2808 2806 2805 2803 2801 2800 2798 2796 2795 2793 2791 2790 2788 2787 2785 2784 2783 2781 2780 2779 2777 2776 2775 2774 2773 2772 2771 2770 2769 2768 2768 2767 2767 2766 2766 2766 2766 2766 2766 2766 2767 2767 2768 2770 2770 2772 2773 2774 2775 2777 2779 2780 2781 2783 2784 2786 2788 2790 2791 2794 2795 2797 2799 2801 2803 2805 2807 2809 2810 2812 2813 2814
2830 2829 2828 2825 2823 2821 2821 2821 2819 2816 2813 2810 2808 2806 2804 2803 2801 2800 2798 2796 2795 2793 2790 2789 2787 2786 2785 2783 2782 2780 2779 2778 2776 2775 2774 2773 2772 2771 2771 2770 2769 2768 2767 2766 2765 2765 2764 2764 2764 2763 2763 2763 2763 2763 2764 2764 2765 2766 2767 2768 2769 2770 2771 2773 2774 2776 2776 2777 2779 2781 2783 2785 2787 2789 2791 2793 2795 2797 2799 2801 2803 2805 2806 2808 2810 2810
2826 2824 2824 2823 2820 2818 2817 2816 2815 2813 2811 2808 2805 2802 2800 2799 2797 2796 2794 2793 2791 2789 2787 2785 2783 2782 2781 2780 2779 2777 2776 2775 2773 2772 2771 2770 2769 2769 2768 2767 2766 2765 2764 2763 2763 2762 2761 2761 2761 2761 2761 2761 2761 2761 2761 2761 2762 2762 2763 2764 2765 2766 2767 2769 2770 2771 2771 2772 2774 2776 2778 2780 2782 2784 2786 2789 2790 2792 2795 2797 2799 2801 2803 2804 2806 2807
2824 2821 2820 2820 2818 2816 2813 2811 2811 2810 2809 2806 2803 2800 2797 2795 2793 2791 2790 2789 2787 2786 2784 2782 2780 2778 2777 2776 2775 2774 2773 2772 2770 2769 2768 2767 2766 2765 2765 2764 2763 2762 2761 2760 2759 2758 2758 2757 2757 2757 2757 2758 2758 2758 2759 2759 2759 2760 2760 2760 2761 2762 2764 2765 2765 2766 2766 2768 2769 2771 2773 2775 2778 2780 2782 2784 2786 2789 2790 2793 2795 2797 2799 2800 2802 2804
2822 2820 2817 2815 2815 2814 2811 2808 2806 2806 2805 2803 2800 2798 2795 2792 2790 2787 2786 2784 2783 2783 2781 2779 2777 2775 2773 2772 2772 2771 2770 2768 2767 2766 2765 2765 2764 2763 2762 2761 2760 2759 2758 2757 2756 2755 2755 2754 2754 2754 2754 2754 2755 2755 2755 2756 2756 2757 2757 2757 2758 2759 2759 2760 2760 2761 2762 2764 2765 2767 2769 2771 2773 2775 2778 2780 2782 2785 2787 2789 2791 2793 2795 2797 2799 2800
2819 2817 2815 2812 2811 2810 2808 2806 2804 2802 2802 2800 2798 2795 2794 2792 2789 2786 2783 2780 2779 2779 2777 2776 2774 2772 2770 2768 2768 2768 2766 2765 2764 2763 2763 2762 2761 2760 2759 2758 2757 2756 2755 2754 2753 2752 2752 2751 2751 2751 2750 2750 2751 2752 2752 2752 2753 2753 2754 2754 2754 2755 2755 2755 2756 2757 2759 2760 2762 2764 2765 2767 2770 2772 2774 2776 2778 2781 2783 2785 2787 2789 2791 2793 2795 2796
2816 2814 2812 2810 2809 2807 2806 2804 2802 2801 2800 2799 2796 2793 2791 2789 2788 2785 2782 2778 2776 2775 2774 2772 2770 2769 2768 2766 2765 2764 2763 2761 2760 2759 2759 2758 2758 2756 2755 2754 2753 2753 2752 2751 2750 2750 2750 2749 2748 2748 2747 2747 2748 2748 2749 2749 2750 2750 2750 2750 2751 2751 2751 2752 2753 2754 2755 2756 2758 2760 2762 2764 2766 2768 2770 2772 2775 2777 2779 2781 2783 2785 2787 2789 2791 2792
2814 2813 2811 2810 2808 2806 2804 2802 2800 2799 2798 2797 2794 2791 2788 2786 2785 2783 2780 2777 2774 2772 2771 2768 2766 2765 2765 2764 2762 2761 2760 2758 2757 2756 2755 2755 2754 2753 2752 2750 2750 2749 2748 2747 2747 2747 2747 2747 2746 2745 2745 2745 2745 2745 2746 2746 2746 2747 2747 2747 2748 2748 2748 2749 2750 2750 2751 2753 2754 2756 2758 2760 2763 2765 2767 2769 2771 2773 2775 2778 2780 2782 2784 2785 2787 2788
2813 2813 2811 2809 2805 2803 2801 2799 2797 2795 2794 2793 2791 2788 2785 2784 2782 2780 2777 2774 2772 2770 2768 2765 2763 2761 2760 2760 2760 2759 2757 2755 2754 2753 2752 2751 2750 2750 2749 2747 2746 2745 2745 2744 2744 2744 2744 2744 2743 2743 2742 2742 2742 2742 2743 2743 2743 2744 2744 2744 2745 2745 2745 2746 2746 2747 2748 2750 2751 2753 2754 2756 2759 2761 2764 2766 2768 2770 2772 2775 2777 2779 2780 2782 2783 2784
2814 2811 2808 2804 2801 2799 2797 2796 2794 2792 2790 2789 2788 2785 2783 2781 2779 2777 2774 2771 2769 2767 2765 2762 2759 2757 2756 2756 2756 2756 2754 2753 2751 2750 2749 2748 2748 2747 2746 2744 2743 2742 2742 2741 2740 2740 2741 2741 2740 2740 2740 2740 2739 2740 2740 2740 2740 2740 2741 2741 2742 2742 2743 2744 2744 2745 2745 2746 2748 2749 2751 2753 2755 2757 2760 2762 2764 2766 2769 2771 2773 2775 2775 2777 2778 2780
2809 2806 2803 2799 2797 2795 2794 2793 2791 2789 2787 2786 2785 2783 2780 2777 2775 2774 2772 2769 2766 2764 2762 2759 2756 2753 2751 2752 2753 2753 2752 2750 2749 2747 2747 2746 2745 2744 2744 2742 2740 2739 2738 2738 2737 2737 2738 2737 2737 2736 2736 2736 2737 2737 2737 2737 2737 2738 2738 2739 2739 2740 2740 2740 2741 2742 2742 2743 2744 2746 2748 2750 2752 2754 2756 2758 2760 2762 2764 2766 2768 2769 2770 2772 2774 2776
2804 2801 2799 2796 2794 2792 2791 2790 2789 2787 2785 2783 2781 2780 2778 2775 2773 2772 2770 2767 2765 2762 2760 2757 2754 2751 2747 2747 2748 2750 2750 2749 2747 2745 2744 2741 2740 2740 2740 2739 2737 2735 2735 2735 2734 2734 2734 2734 2734 2733 2733 2734 2734 2734 2734 2734 2735 2735 2735 2735 2735 2736 2737 2738 2738 2739 2739 2740 2741 2742 2744 2746 2749 2751 2753 2755 2756 2758 2760 2762 2764 2765 2767 2769 2771 2773
2800 2799 2796 2794 2791 2789 2788 2787 2786 2785 2783 2781 2779 2776 2774 2773 2772 2771 2769 2765 2763 2760 2758 2755 2753 2750 2747 2744 2744 2746 2747 2746 2744 2742 2739 2737 2736 2737 2737 2736 2734 2732 2731 2731 2731 2731 2731 2730 2730 2730 2730 2730 2730 2731 2731 2732 2732 2731 2731 2731 2731 2732 2734 2735 2735 2736 2736 2737 2738 2739 2740 2742 2744 2745 2747 2750 2751 2754 2756 2759 2761 2762 2764 2765 2768 2770
2797 2795 2793 2790 2788 2786 2785 2785 2784 2782 2780 2779 2776 2774 2773 2772 2772 2770 2766 2763 2761 2758 2756 2753 2750 2748 2746 2743 2742 2742 2744 2743 2740 2738 2735 2733 2732 2733 2733 2732 2730 2729 2728 2728 2728 2728 2728 2727 2727 2727 2727 2727 2727 2727 2728 2728 2727 2727 2727 2727 2727 2728 2730 2731 2732 2734 2734 2735 2735 2736 2737 2738 2739 2741 2743 2745 2748 2750 2753 2755 2757 2759 2760 2762 2764 2766
2793 2791 2790 2788 2786 2784 2782 2782 2781 2780 2779 2778 2777 2776 2774 2772 2769 2766 2763 2760 2758 2756 2754 2751 2748 2746 2744 2742 2740 2740 2741 2740 2738 2735 2733 2731 2730 2729 2730 2730 2728 2726 2725 2725 2725 2725 2725 2725 2724 2724 2724 2724 2724 2724 2724 2723 2723 2723 2723 2724 2725 2725 2726 2727 2728 2730 2731 2732 2732 2732 2734 2735 2737 2738 2740 2742 2744 2746 2749 2751 2753 2755 2757 2759 2760 2763
2789 2787 2786 2785 2784 2782 2780 2780 2780 2780 2779 2778 2777 2775 2771 2767 2764 2762 2760 2758 2756 2754 2751 2749 2746 2744 2742 2740 2739 2738 2739 2738 2736 2734 2731 2728 2726 2726 2727 2727 2725 2724 2723 2722 2722 2723 2722 2721 2721 2721 2721 2721 2721 2721 2720 2720 2720 2720 2721 2721 2722 2722 2722 2723 2723 2725 2725 2726 2728 2729 2730 2732 2733 2735 2736 2738 2740 2742 2744 2747 2749 2751 2753 2755 2757 2759
2787 2784 2783 2783 2782 2781 2780 2779 2779 2778 2776 2774 2772 2769 2765 2763 2760 2759 2757 2755 2753 2750 2748 2746 2744 2742 2740 2739 2737 2736 2737 2736 2735 2732 2730 2727 2725 2724 2725 2725 2723 2721 2720 2720 2720 2719 2719 2718 2718 2718 2718 2718 2718 2717 2718 2718 2718 2718 2718 2719 2719 2719 2719 2719 2720 2720 2721 2723 2724 2725 2726 2728 2730 2731 2733 2735 2736 2738 2740 2742 2745 2746 2749 2750 2753 2755
2785 2782 2781 2780 2780 2780 2779 2777 2774 2772 2771 2770 2768 2765 2763 2761 2759 2756 2754 2752 2750 2747 2745 2743 2741 2739 2738 2736 2735 2734 2735 2734 2733 2731 2730 2727 2724 2722 2722 2722 2720 2719 2717 2716 2716 2716 2715 2715 2715 2714 2714 2714 2714 2714 2714 2714 2715 2715 2715 2715 2715 2715 2716 2716 2717 2717 2718 2719 2720 2722 2723 2724 2726 2727 2729 2731 2733 2734 2736 2739 2741 2743 2745 2747 2749 2751
2782 2780 2779 2780 2779 2778 2775 2772 2770 2769 2768 2767 2765 2763 2761 2759 2757 2754 2752 2749 2747 2745 2742 2740 2738 2736 2735 2734 2733 2732 2732 2732 2732 2731 2730 2726 2722 2720 2720 2719 2718 2715 2714 2714 2714 2713 2712 2711 2711 2711 2710 2710 2711 2711 2711 2711 2711 2711 2711 2712 2712 2713 2713 2713 2714 2715 2715 2716 2717 2718 2719 2720 2722 2724 2725 2727 2729 2731 2733 2735 2737 2739 2741 2744 2746 2748
2780 2779 2779 2779 2778 2775 2771 2769 2768 2767 2766 2764 2762 2760 2758 2756 2754 2751 2749 2747 2745 2743 2740 2738 2735 2733 2732 2732 2731 2730 2730 2730 2731 2731 2728 2723 2719 2717 2717 2717 2715 2713 2711 2710 2710 2710 2709 2708 2708 2707 2707 2707 2707 2707 2707 2707 2707 2708 2708 2709 2710 2710 2710 2711 2711 2712 2712 2713 2714 2715 2716 2717 2718 2720 2722 2724 2725 2727 2729 2732 2734 2736 2738 2740 2743 2745
2777 2777 2777 2776 2773 2770 2768 2767 2766 2765 2764 2762 2760 2757 2755 2752 2750 2748 2746 2744 2742 2740 2738 2735 2733 2731 2730 2729 2728 2728 2728 2729 2729 2727 2724 2721 2717 2715 2714 2715 2713 2711 2708 2707 2707 2706 2705 2705 2704 2704 2704 2704 2704 2704 2704 2704 2704 2705 2705 2706 2707 2707 2708 2708 2708 2709 2709 2710 2711 2712 2713 2714 2715 2717 2719 2720 2723 2725 2726 2729 2731 2733 2735 2737 2740 2742
2774 2773 2772 2770 2768 2766 2765 2764 2763 2762 2760 2759 2757 2755 2752 2749 2747 2745 2743 2741 2740 2738 2736 2733 2731 2729 2728 2727 2726 2726 2726 2726 2725 2723 2721 2719 2716 2713 2712 2712 2710 2708 2706 2704 2703 2702 2702 2701 2701 2700 2700 2700 2700 2700 2701 2701 2701 2702 2703 2704 2704 2704 2705 2705 2705 2706 2706 2707 2708 2709 2710 2711 2713 2715 2716 2718 2720 2722 2724 2726 2728 2730 2732 2735 2737 2739
2770 2769 2767 2765 2764 2763 2762 2761 2760 2759 2757 2756 2755 2753 2750 2747 2745 2742 2740 2739 2738 2736 2734 2732 2730 2728 2726 2725 2724 2724 2723 2722 2721 2720 2720 2717 2715 2711 2710 2709 2708 2705 2703 2701 2699 2699 2698 2698 2697 2697 2697 2697 2697 2698 2698 2698 2699 2700 2700 2701 2701 2701 2702 2702 2703 2703 2704 2705 2706 2707 2708 2709 2711 2712 2714 2716 2718 2720 2721 2723 2725 2727 2729 2732 2734 2736
2766 2765 2764 2762 2761 2760 2759 2758 2757 2755 2754 2753 2752 2750 2748 2745 2743 2740 2738 2737 2735 2734 2732 2730 2729 2727 2725 2723 2721 2720 2719 2719 2719 2719 2717 2715 2712 2709 2708 2706 2705 2703 2701 2699 2696 2695 2695 2695 2695 2694 2694 2695 2695 2695 2695 2695 2696 2697 2697 2698 2698 2699 2699 2700 2700 2701 2702 2703 2704 2705 2706 2707 2709 2710 2712 2714 2715 2717 2719 2721 2723 2725 2727 2729 2731 2734
2762 2761 2760 2759 2759 2758 2756 2755 2754 2752 2751 2750 2749 2747 2745 2743 2741 2739 2736 2735 2734 2732 2730 2728 2726 2725 2723 2720 2717 2715 2715 2716 2717 2716 2715 2713 2710 2707 2705 2704 2703 2701 2700 2697 2694 2691 2690 2691 2692 2692 2692 2692 2692 2692 2693 2693 2693 2694 2694 2695 2695 2696 2697 2698 2698 2699 2700 2701 2702 2703 2704 2705 2707 2708 2710 2712 2713 2715 2717 2719 2721 2722 2724 2726 2729 2731
2760 2758 2757 2756 2755 2755 2753 2752 2750 2749 2748 2747 2745 2744 2742 2740 2738 2736 2734 2733 2731 2730 2727 2725 2724 2722 2720 2718 2715 2712 2711 2712 2713 2714 2712 2710 2707 2705 2703 2702 2700 2699 2698 2697 2695 2691 2687 2686 2688 2690 2690 2690 2690 2690 2691 2691 2691 2691 2691 2692 2693 2694 2695 2695 2696 2697 2698 2699 2700 2701 2703 2704 2705 2707 2708 2710 2711 2713 2715 2717 2719 2720 2722 2724 2727 2729
2757 2756 2755 2754 2753 2751 2750 2749 2747 2746 2745 2743 2742 2740 2739 2737 2735 2733 2732 2730 2728 2726 2725 2722 2720 2719 2717 2716 2714 2711 2708 2708 2710 2710 2710 2707 2704 2702 2701 2700 2698 2696 2695 2695 2694 2692 2688 2685 2685 2686 2687 2687 2688 2688 2689 2689 2689 2689 2689 2690 2691 2692 2693 2693 2694 2695 2696 2698 2699 2700 2701 2703 2704 2705 2706 2708 2710 2711 2713 2715 2717 2719 2720 2722 2725 2727
2755 2754 2753 2751 2750 2749 2748 2746 2745 2743 2741 2740 2738 2737 2735 2734 2732 2730 2729 2727 2725 2724 2722 2720 2717 2715 2714 2712 2710 2708 2706 2706 2707 2707 2707 2705 2702 2700 2698 2697 2695 2693 2692 2692 2691 2690 2688 2685 2683 2683 2684 2685 2685 2686 2686 2687 2687 2687 2688 2688 2689 2690 2691 2692 2693 2694 2695 2696 2697 2699 2700 2701 2702 2704 2705 2706 2708 2710 2712 2714 2715 2717 2719 2721 2723 2725
2753 2752 2750 2749 2748 2746 2745 2743 2742 2740 2739 2737 2735 2734 2732 2730 2729 2727 2725 2724 2722 2720 2719 2717 2715 2713 2711 2709 2707 2705 2704 2704 2705 2705 2704 2703 2700 2698 2696 2695 2693 2691 2690 2689 2688 2687 2686 2684 2683 2682 2681 2682 2684 2685 2685 2685 2685 2685 2686 2687 2688 2689 2690 2690 2691 2692 2693 2695 2696 2697 2699 2700 2701 2702 2704 2705 2707 2709 2710 2712 2714 2715 2717 2719 2721 2723
2751 2750 2748 2747 2745 2744 2742 2740 2739 2737 2736 2734 2732 2730 2729 2727 2725 2724 2722 2721 2719 2717 2716 2715 2713 2711 2709 2707 2704 2702 2701 2701 2702 2703 2702 2700 2699 2696 2694 2692 2690 2690 2688 2687 2686 2685 2684 2682 2682 2681 2680 2680 2681 2683 2683 2683 2684 2684 2685 2685 2686 2687 2688 2689 2690 2691 2692 2693 2695 2696 2697 2698 2700 2701 2702 2704 2705 2707 2709 2711 2712 2714 2716 2717 2719 2721
2749 2748 2746 2745 2743 2741 2739 2738 2736 2734 2733 2731 2729 2728 2726 2724 2723 2721 2719 2718 2716 2715 2713 2712 2710 2709 2707 2705 2703 2700 2699 2699 2699 2700 2699 2698 2697 2695 2692 2690 2688 2688 2687 2685 2684 2683 2682 2680 2680 2680 2680 2680 2680 2681 2682 2682 2682 2683 2683 2684 2685 2686 2687 2687 2688 2689 2691 2692 2693 2695 2696 2697 2698 2700 2701 2703 2705 2706 2708 2710 2711 2713 2714 2716 2717 2719
2747 2746 2745 2743 2741 2739 2737 2735 2733 2731 2730 2728 2726 2725 2723 2721 2720 2718 2716 2715 2713 2712 2710 2709 2707 2706 2705 2703 2701 2699 2698 2697 2696 2696 2696 2695 2695 2693 2690 2688 2686 2686 2686 2684 2683 2682 2680 2679 2678 2679 2679 2679 2679 2680 2680 2681 2681 2682 2682 2683 2684 2685 2685 2686 2687 2688 2690 2691 2692 2694 2695 2696 2697 2699 2700 2702 2703 2705 2706 2708 2710 2711 2713 2714 2716 2717
2746 2744 2742 2741 2739 2737 2735 2732 2731 2729 2727 2725 2723 2722 2720 2718 2717 2715 2713 2712 2710 2709 2707 2706 2705 2703 2702 2701 2700 2698 2696 2695 2695 2694 2694 2693 2692 2690 2688 2686 2685 2685 2684 2683 2682 2680 2680 2678 2677 2677 2678 2678 2679 2679 2679 2680 2680 2681 2681 2682 2683 2684 2685 2685 2686 2688 2689 2690 2692 2693 2694 2695 2696 2698 2699 2700 2702 2704 2705 2707 2708 2710 2711 2712 2714 2716
2744 2742 2740 2739 2736 2735 2732 2730 2728 2726 2725 2723 2721 2719 2717 2715 2714 2712 2711 2709 2708 2706 2705 2703 2702 2700 2699 2698 2697 2696 2695 2694 2693 2692 2691 2690 2689 2688 2686 2685 2683 2683 2682 2681 2681 2680 2679 2678 2677 2676 2677 2677 2677 2678 2679 2679 2680 2680 2680 2681 2682 2683 2684 2685 2686 2687 2689 2690 2692 2693 2694 2695 2696 2697 2698 2700 2701 2702 2704 2705 2706 2708 2709 2711 2712 2714
2742 2740 2738 2737 2735 2733 2730 2728 2726 2724 2722 2720 2718 2717 2715 2713 2711 2710 2708 2707 2705 2704 2702 2701 2700 2698 2697 2696 2695 2694 2693 2692 2691 2690 2689 2688 2687 2685 2685 2683 2682 2681 2680 2680 2680 2679 2678 2677 2676 2676 2676 2676 2677 2677 2678 2678 2679 2680 2680 2681 2682 2683 2684 2685 2686 2687 2689 2690 2691 2692 2694 2695 2695 2697 2698 2699 2700 2701 2703 2704 2705 2706 2708 2709 2711 2713
2740 2738 2736 2735 2733 2731 2729 2726 2725 2722 2720 2718 2716 2714 2713 2711 2709 2707 2705 2704 2703 2702 2700 2699 2698 2696 2695 2694 2693 2692 2691 2690 2689 2688 2687 2686 2685 2684 2683 2682 2681 2680 2680 2679 2678 2677 2677 2676 2676 2676 2676 2676 2676 2677 2677 2678 2678 2679 2680 2681 2682 2683 2684 2685 2686 2687 2689 2690 2691 2692 2693 2695 2695 2696 2697 2699 2700 2700 2702 2703 2704 2705 2707 2708 2710 2711
2739 2736 2735 2733 2730 2729 2726 2725 2723 2721 2719 2717 2715 2713 2711 2709 2707 2705 2704 2702 2701 2700 2699 2697 2696 2694 2693 2692 2691 2690 2690 2689 2687 2686 2685 2684 2683 2682 2682 2681 2680 2679 2678 2677 2676 2676 2676 2675 2675 2675 2675 2675 2675 2676 2677 2678 2678 2679 2680 2680 2681 2683 2684 2685 2686 2688 2689 2690 2691 2692 2693 2694 2695 2696 2697 2698 2699 2700 2701 2702 2703 2705 2706 2708 2709 2710
2737 2735 2733 2731 2729 2727 2725 2723 2721 2719 2717 2715 2714 2712 2710 2708 2706 2705 2703 2701 2700 2699 2697 2696 2694 2693 2691 2690 2690 2689 2688 2687 2686 2685 2684 2683 2682 2681 2681 2680 2678 2677 2676 2675 2675 2675 2675 2675 2675 2674 2675 2675 2675 2676 2676 2677 2678 2679 2680 2680 2682 2683 2684 2685 2687 2688 2689 2690 2690 2692 2693 2694 2695 2696 2696 2697 2698 2699 2700 2701 2703 2704 2705 2707 2708 2710
2735 2733 2731 2729 2727 2725 2723 2721 2720 2718 2716 2714 2713 2711 2709 2707 2706 2704 2702 2701 2699 2698 2696 2695 2693 2692 2690 2689 2688 2688 2687 2686 2685 2684 2683 2682 2681 2680 2679 2678 2677 2676 2675 2675 2674 2674 2674 2674 2674 2674 2674 2674 2675 2675 2676 2677 2678 2678 2680 2681 2682 2683 2684 2685 2687 2688 2689 2690 2690 2692 2693 2694 2695 2695 2696 2696 2697 2698 2700 2701 2702 2703 2705 2706 2708 2709
2734 2732 2730 2728 2726 2724 2722 2720 2719 2717 2715 2714 2712 2710 2709 2707 2705 2704 2702 2700 2699 2697 2695 2694 2692 2691 2690 2689 2687 2686 2685 2685 2684 2683 2682 2681 2680 2679 2677 2676 2675 2675 2674 2674 2673 2673 2673 2673 2673 2673 2673 2674 2674 2675 2676 2677 2678 2679 2680 2681 2682 2683 2684 2685 2687 2688 2689 2690 2691 2692 2693 2694 2694 2695 2695 2696 2697 2698 2699 2700 2701 2703 2704 2705 2707 2708
2733 2731 2729 2727 2725 2723 2722 2720 2718 2716 2715 2713 2711 2710 2708 2706 2705 2703 2701 2700 2698 2696 2694 2693 2692 2691 2690 2688 2687 2685 2684 2683 2682 2681 2681 2680 2678 2677 2676 2675 2675 2674 2673 2673 2672 2672 2672 2672 2672 2672 2673 2673 2674 2675 2675 2677 2678 2678 2680 2680 2682 2683 2685 2686 2687 2688 2689 2690 2691 2692 2693 2694 2694 2695 2695 2695 2696 2697 2699 2700 2701 2702 2703 2705 2706 2707
2732 2730 2728 2726 2725 2723 2721 2720 2718 2716 2715 2713 2711 2710 2708 2706 2704 2703 2701 2699 2697 2695 2694 2693 2692 2691 2690 2688 2686 2685 2684 2682 2681 2680 2680 2679 2677 2676 2675 2675 2674 2673 2673 2672 2672 2671 2671 2671 2672 2672 2672 2673 2674 2675 2675 2676 2677 2678 2679 2680 2682 2683 2685 2686 2687 2689 2689 2690 2691 2692 2693 2694 2695 2695 2695 2695 2696 2697 2698 2700 2700 2701 2703 2704 2705 2706
2732 2730 2728 2726 2724 2722 2721 2719 2718 2716 2714 2713 2711 2709 2708 2706 2704 2702 2700 2698 2696 2695 2694 2693 2692 2690 2689 2688 2686 2685 2684 2682 2681 2680 2679 2678 2677 2676 2675 2674 2673 2673 2672 2672 2671 2671 2671 2671 2671 2671 2672 2673 2673 2674 2675 2676 2677 2678 2679 2681 2682 2684 2685 2687 2688 2689 2690 2691 2692 2693 2694 2695 2695 2695 2696 2696 2697 2698 2699 2700 2701 2702 2703 2704 2705 2706
2731 2730 2728 2725 2724 2722 2720 2719 2717 2716 2714 2712 2710 2709 2707 2706 2704 2702 2700 2698 2697 2695 2694 2693 2691 2690 2689 2687 2686 2685 2684 2683 2681 2680 2679 2678 2677 2676 2675 2674 2673 2672 2672 2671 2671 2671 2670 2670 2671 2671 2672 2672 2673 2674 2675 2676 2677 2678 2680 2681 2682 2684 2685 2687 2689 2690 2691 2692 2693 2695 2695 2696 2697 2697 2697 2698 2698 2699 2700 2701 2702 2703 2705 2706 2707 2708
2731 2730 2728 2726 2724 2722 2720 2719 2717 2715 2714 2712 2710 2709 2707 2705 2704 2701 2700 2698 2697 2696 2695 2693 2692 2690 2689 2687 2686 2685 2684 2683 2681 2680 2679 2678 2677 2676 2675 2674 2673 2672 2672 2671 2671 2670 2670 2670 2671 2671 2671 2672 2673 2674 2675 2676 2677 2679 2680 2681 2683 2685 2686 2688 2689 2690 2692 2694 2695 2696 2697 2698 2698 2699 2699 2699 2700 2700 2701 2702 2703 2705 2706 2708 2709 2710
2731 2729 2728 2726 2724 2722 2721 2719 2717 2716 2714 2712 2710 2709 2707 2705 2703 2701 2700 2699 2698 2696 2695 2694 2692 2691 2690 2688 2687 2685 2685 2683 2682 2680 2679 2678 2677 2676 2675 2674 2673 2673 2672 2671 2671 2670 2670 2671 2671 2671 2671 2672 2673 2674 2675 2676 2678 2679 2680 2682 2684 2685 2687 2689 2690 2692 2693 2695 2696 2697 2698 2699 2700 2700 2701 2701 2701 2702 2703 2704 2705 2706 2708 2710 2711 2712